Location: Murray Reservoir
(44.3513°N, 118.1041°W)
Time: 16:03:01
(UTC-07:00)

OTV 5 (USA 277) - Visible Passes

Search period start: 24 August 2019 00:00
Search period end: 03 September 2019 00:00
Orbit: 305 x 329 km, 54.5° (Epoch: 20 August)

Date Brightness Start Highest point End Pass type
(mag) Time Alt. Az. Time Alt. Az. Time Alt. Az.
24 Aug ? 21:35:52 10° WSW 21:38:28 45° NNW 21:38:56 39° N visible
25 Aug ? 20:16:14 10° SSW 20:18:46 37° SE 20:21:18 10° ENE visible
25 Aug ? 21:50:56 10° W 21:53:10 23° NNW 21:53:52 20° N visible
26 Aug ? 20:30:34 10° WSW 20:33:16 74° NW 20:35:57 10° NE visible
26 Aug ? 22:06:22 10° NW 22:07:59 15° NNW 22:08:24 14° N visible
27 Aug ? 20:45:27 10° W 20:47:54 31° NNW 20:50:22 10° NE visible
27 Aug ? 22:22:01 10° NNW 22:22:40 11° NNW 22:22:40 11° NNW visible
28 Aug ? 21:00:42 10° WNW 21:02:40 18° NNW 21:04:37 10° NNE visible
29 Aug ? 21:16:15 10° NW 21:17:32 12° NNW 21:18:48 10° NNE visible
30 Aug ? 21:32:01 10° NNW 21:32:28 10° N 21:32:54 10° N visible
31 Aug ? 20:10:32 10° NW 20:12:11 15° NNW 20:13:51 10° NNE visible
31 Aug ? 21:47:14 10° N 21:47:26 10° N 21:47:37 10° N visible
01 Sep ? 20:26:11 10° NNW 20:27:06 11° N 20:28:00 10° N visible
01 Sep ? 22:01:17 10° NNW 22:01:30 11° N 22:01:30 11° N visible
